Location: *
(47.8307°S, 178.3954°E)
Time: 08:14:31
(UTC+00:00)

SL-16 R/B - Pass Details

Date: 12 August 2024
Orbit: 985 x 1006 km, 99.7° (Epoch: 18 September)

Event Time Altitude Azimuth Distance (km) Brightness Sun altitude
Rises 15:24:38 0° 160° (SSE) 3,759 6.1 -38.3°
Reaches altitude 10° 15:27:16 10° 154° (SSE) 2,799 5.3 -37.9°
Enters shadow 15:32:54 46° 92° (E) 1,334 3.4 -37.0°
